Location: Unspecified
(0.0000°N, 0.0000°E)
Time: 00:36:29
(UTC+00:00)

A-11 Canister half - Pass Details

Date: 10 February 2023
Orbit: 1526 x 1682 km, 47.3° (Epoch: 29 March)

Event Time Altitude Azimuth Distance (km) Brightness Sun altitude
Rises 23:37:46 0° 207° (SSW) 4,851 11.9 -73.2°
Enters shadow 23:38:12 - 207° (SSW) 4,717 11.8 -73.2°
Reaches altitude 10° 23:41:08 10° 201° (SSW) 3,841 - -73.6°
Maximum altitude 23:50:20 46° 130° (SE) 2,014 - -74.6°
Drops below altitude 10° 23:59:13 10° 60° (ENE) 3,721 - -75.3°
Sets 00:02:23 0° 54° (NE) 4,688 - -75.5°
